GW3792 Weather Reports


time (UTC)temp
F
wind
direction
speed
knots
gust
knots
rain 1hr
in
rain 24hr
in
rain mn
in
humidity
%
barometer
mb
20260505083524 58 261 7.0 9.6 0.00 0.01 0.00 92 1019.9
20260505083142 58 265 6.1 8.7 0.00 0.01 0.00 92 1020.0
20260505082522 58 259 3.5 7.8 0.00 0.01 0.00 91 1020.0
20260505082021 58 265 5.2 8.7 0.00 0.01 0.00 91 1020.0
20260505081648 58 261 3.5 8.7 0.00 0.01 0.00 91 1019.9
20260505081027 58 265 4.3 9.6 0.00 0.01 0.00 91 1020.0
20260505080532 58 265 5.2 9.6 0.00 0.01 0.00 91 1019.8
20260505080159 59 261 5.2 9.6 0.00 0.01 0.00 91 1019.8
20260505075709 59 261 6.1 10.4 0.00 0.01 0.00 91 1019.8
20260505075027 59 261 6.1 12.2 0.00 0.01 0.00 91 1019.9
20260505074700 59 259 7.8 12.2 0.00 0.01 0.00 91 1020.0
20260505074035 59 257 7.0 12.2 0.00 0.01 0.00 91 1020.1
20260505073546 59 265 6.1 12.2 0.00 0.01 0.00 91 1019.9
20260505073150 59 261 8.7 12.2 0.00 0.01 0.00 91 1020.0
20260505072542 59 262 7.8 12.2 0.00 0.01 0.00 91 1019.9
20260505072039 59 265 4.3 10.4 0.00 0.01 0.00 90 1020.0
20260505071658 59 261 7.0 10.4 0.00 0.01 0.00 91 1019.8
20260505071033 59 270 5.2 12.2 0.00 0.01 0.00 90 1019.6
20260505070521 59 262 7.8 12.2 0.00 0.01 0.00 91 1019.7
20260505070233 59 262 7.8 12.2 0.00 0.01 0.00 91 1019.6
20260505065520 59 282 7.8 10.4 0.00 0.01 0.00 91 1019.9
20260505065025 59 265 7.0 13.0 0.00 0.01 0.00 90 1019.7
20260505064723 59 265 7.8 13.0 0.00 0.01 0.00 90 1019.7
20260505064026 59 259 7.8 13.9 0.00 0.01 0.00 90 1019.7
20260505063532 60 282 8.7 14.8 0.00 0.01 0.00 90 1019.9
20260505063226 60 262 9.6 14.8 0.00 0.01 0.00 90 1020.1
20260505062535 60 265 7.0 14.8 0.00 0.01 0.00 90 1020.0
20260505062052 60 259 9.6 14.8 0.00 0.01 0.00 90 1020.0
20260505061638 60 265 8.7 15.6 0.00 0.01 0.00 90 1020.0
20260505061035 60 262 10.4 15.6 0.00 0.01 0.00 90 1019.9
20260505060520 60 259 11.3 14.8 0.00 0.01 0.00 90 1020.0
20260505060224 60 265 9.6 16.5 0.00 0.01 0.00 90 1020.0
20260505055538 60 268 11.3 15.6 0.00 0.01 0.00 90 1020.0
20260505055046 60 263 9.6 14.8 0.00 0.01 0.00 90 1020.0
20260505054701 60 261 10.4 13.9 0.00 0.01 0.00 90 1020.0
20260505054033 60 259 9.6 14.8 0.00 0.01 0.00 90 1020.1
20260505053529 60 257 11.3 14.8 0.00 0.01 0.00 90 1020.2
20260505053142 60 262 10.4 13.9 0.00 0.01 0.00 90 1020.3
20260505052539 60 261 8.7 14.8 0.00 0.01 0.00 90 1020.3
20260505052036 59 261 10.4 14.8 0.00 0.01 0.00 91 1020.2
20260505051719 59 261 10.4 13.9 0.00 0.01 0.00 91 1020.1
20260505051026 59 257 8.7 12.2 0.00 0.01 0.00 91 1020.2
20260505050539 59 261 9.6 12.2 0.00 0.01 0.00 91 1020.2
20260505050156 59 259 8.7 12.2 0.00 0.01 0.00 91 1020.2
20260505041701 59 265 7.0 9.6 0.00 0.01 0.00 90 1020.2
20260505041025 59 261 6.1 9.6 0.00 0.01 0.00 90 1020.3
20260505040525 59 265 6.1 9.6 0.00 0.01 0.00 90 1020.4
20260505040209 59 259 4.3 16.5 0.00 0.01 0.00 90 1020.3
20260505035526 59 291 1.7 16.5 0.00 0.02 0.00 90 1020.5
20260505035041 59 255 15.6 16.5 0.00 0.02 0.00 90 1020.3
20260505034701 59 255 15.6 16.5 0.00 0.02 0.00 90 1020.3
20260505034042 59 255 15.6 16.5 0.00 0.02 0.00 90 1020.3
20260505033536 59 255 15.6 16.5 0.00 0.02 0.00 90 1020.3
20260505033151 59 255 15.6 16.5 0.00 0.02 0.00 90 1020.2
20260505032537 59 255 15.6 16.5 0.00 0.02 0.00 90 1020.3
20260505032045 59 255 15.6 16.5 0.00 0.02 0.00 90 1020.3
20260505031653 59 255 15.6 16.5 0.00 0.02 0.00 90 1020.2
20260505031041 59 255 15.6 16.5 0.00 0.02 0.00 90 1020.3
20260505030547 59 255 15.6 16.5 0.00 0.02 0.00 91 1020.3
20260505030146 59 255 15.6 16.5 0.00 0.02 0.00 91 1020.4
20260505025540 59 255 15.6 16.5 0.00 0.02 0.02 91 1020.3
20260505025038 59 255 15.6 16.5 0.00 0.02 0.02 91 1020.4
20260505024637 59 255 15.6 16.5 0.00 0.02 0.02 91 1020.5
20260505024031 59 255 15.6 16.5 0.00 0.02 0.02 91 1020.4
20260505023542 59 255 15.6 16.5 0.00 0.02 0.02 91 1020.5
20260505023138 59 255 15.6 16.5 0.00 0.02 0.02 91 1020.6
20260505022549 59 255 15.6 16.5 0.00 0.02 0.02 91 1020.5
20260505022038 58 255 15.6 16.5 0.00 0.02 0.02 91 1020.6
20260505021639 58 255 15.6 16.5 0.00 0.02 0.02 91 1020.5
20260505021031 58 255 15.6 16.5 0.00 0.02 0.02 91 1020.6
20260505020536 58 255 15.6 16.5 0.00 0.02 0.02 91 1020.6
20260505020139 58 255 15.6 16.5 0.00 0.02 0.02 91 1020.7
20260505015540 58 255 15.6 16.5 0.00 0.02 0.02 91 1020.5
20260505015024 58 255 15.6 16.5 0.00 0.02 0.02 91 1020.4
20260505014646 58 255 15.6 16.5 0.00 0.02 0.02 91 1020.3
20260505014046 58 255 15.6 16.5 0.00 0.02 0.02 91 1020.3
20260505013518 58 255 15.6 16.5 0.00 0.02 0.02 91 1020.2
20260505013150 59 255 15.6 16.5 0.00 0.02 0.02 91 1020.5
20260505012535 59 255 15.6 16.5 0.00 0.02 0.02 91 1020.3
20260505012026 59 255 15.6 16.5 0.00 0.02 0.02 91 1020.4
20260505011643 59 255 15.6 26.1 0.00 0.02 0.02 90 1020.7
20260505011028 60 255 15.6 26.1 0.00 0.02 0.02 91 1020.5
20260505010521 59 279 10.4 16.5 0.00 0.02 0.02 90 1020.4
20260505010158 59 261 7.0 11.3 0.00 0.02 0.02 90 1020.3
20260505005533 59 262 7.8 12.2 0.00 0.02 0.02 90 1020.4
20260505005039 59 261 7.8 12.2 0.00 0.02 0.02 90 1020.4
20260505004640 59 262 7.0 13.0 0.00 0.02 0.02 90 1020.2
20260505004031 59 265 7.8 13.9 0.00 0.02 0.02 90 1020.0
20260505003525 59 265 8.7 13.9 0.00 0.02 0.02 90 1020.1
20260505003147 59 265 8.7 13.0 0.00 0.02 0.02 90 1020.0
20260505002518 59 262 7.8 11.3 0.00 0.02 0.02 90 1020.0
20260505002031 59 262 7.0 13.9 0.00 0.02 0.02 90 1019.9
20260505001609 59 279 7.8 13.9 0.00 0.02 0.02 90 1019.7
20260505001029 59 261 9.6 13.9 0.00 0.02 0.02 91 1019.6
20260505000526 59 262 7.0 14.8 0.00 0.02 0.02 91 1019.7
20260505000155 59 259 9.6 14.8 0.00 0.02 0.02 90 1019.7
20260504235520 59 261 7.0 13.0 0.00 0.02 0.02 90 1019.5
20260504235026 59 298 7.0 14.8 0.00 0.02 0.02 91 1019.6
20260504234642 60 273 9.6 15.6 0.00 0.02 0.02 91 1019.7
20260504234035 60 261 8.7 15.6 0.00 0.02 0.02 90 1019.6
20260504233523 60 257 9.6 17.4 0.00 0.02 0.02 90 1019.6
20260504233154 60 261 11.3 17.4 0.00 0.02 0.02 90 1019.5
20260504232532 59 261 11.3 16.5 0.00 0.02 0.02 91 1019.5
20260504232050 59 259 9.6 16.5 0.00 0.02 0.02 91 1019.5
20260504231703 59 269 10.4 14.8 0.00 0.02 0.02 90 1019.6
20260504231039 59 257 10.4 13.9 0.00 0.02 0.02 91 1019.7
20260504230524 59 255 8.7 15.6 0.00 0.02 0.02 91 1019.6
20260504230204 59 261 10.4 15.6 0.00 0.02 0.02 91 1019.6
20260504225532 59 279 8.7 15.6 0.00 0.02 0.02 91 1019.5
20260504225024 59 289 9.6 15.6 0.00 0.02 0.02 91 1019.3
20260504224654 59 271 7.8 16.5 0.00 0.02 0.02 90 1019.4
20260504224041 59 261 10.4 17.4 0.00 0.02 0.02 90 1019.3
20260504223544 59 265 13.0 17.4 0.00 0.02 0.02 90 1019.4
20260504223147 59 259 8.7 13.0 0.01 0.02 0.02 90 1019.4
20260504222533 59 273 7.8 12.2 0.01 0.02 0.02 90 1019.3
20260504222024 59 261 7.8 12.2 0.01 0.02 0.02 90 1019.2
20260504221702 59 259 7.8 11.3 0.01 0.02 0.02 90 1019.1
20260504221022 59 259 7.8 13.0 0.01 0.02 0.02 90 1019.1
20260504220532 59 277 7.8 13.9 0.01 0.02 0.02 90 1019.1
20260504220215 59 268 7.8 15.6 0.01 0.02 0.02 90 1018.9
20260504215523 59 265 8.7 15.6 0.01 0.02 0.02 90 1018.8
20260504215046 59 259 10.4 15.6 0.01 0.02 0.02 90 1018.9
20260504214710 59 261 8.7 13.9 0.01 0.02 0.02 90 1018.8
20260504214041 59 292 9.6 15.6 0.01 0.02 0.02 90 1018.5
20260504213521 59 273 10.4 15.6 0.01 0.02 0.02 90 1018.5
20260504213153 59 261 8.7 13.0 0.00 0.01 0.01 90 1018.6
20260504212544 60 259 7.8 13.9 0.00 0.01 0.01 89 1018.6
20260504212046 60 262 8.7 13.9 0.00 0.01 0.01 89 1018.7
20260504211654 60 265 10.4 16.5 0.00 0.01 0.01 89 1018.8
20260504211039 60 277 10.4 16.5 0.00 0.01 0.01 89 1018.7
20260504210540 60 259 8.7 14.8 0.00 0.01 0.01 89 1018.8
20260504210222 60 257 8.7 20.9 0.00 0.01 0.01 88 1018.7
20260504205532 60 259 11.3 26.1 0.00 0.01 0.01 88 1018.7
20260504205035 60 257 13.0 27.8 0.00 0.01 0.01 88 1018.5
20260504204641 60 259 17.4 26.1 0.00 0.01 0.01 88 1018.3
20260504204032 60 259 8.7 20.0 0.00 0.01 0.01 88 1018.1
20260504203530 60 268 11.3 22.6 0.00 0.01 0.01 88 1018.3
20260504203207 61 261 16.5 22.6 0.00 0.01 0.01 87 1018.1
20260504202541 61 261 13.0 20.0 0.00 0.01 0.01 87 1018.2
20260504202036 61 262 8.7 13.0 0.00 0.01 0.01 87 1018.3
20260504201705 61 259 6.1 14.8 0.00 0.01 0.01 87 1018.1
20260504201037 61 262 7.8 14.8 0.00 0.01 0.01 87 1018.3
20260504200531 61 262 7.0 10.4 0.00 0.01 0.01 87 1018.3
20260504200224 61 262 6.1 10.4 0.00 0.01 0.01 87 1018.1
20260504195529 61 261 6.1 12.2 0.00 0.01 0.01 87 1017.9
20260504195042 61 277 6.1 12.2 0.00 0.01 0.01 87 1018.2
20260504194707 61 262 7.8 11.3 0.00 0.01 0.01 87 1018.5
20260504194025 61 259 7.8 13.0 0.00 0.01 0.01 87 1018.3
20260504193542 62 275 8.7 13.0 0.00 0.01 0.01 87 1018.4
20260504193207 62 262 7.8 12.2 0.00 0.01 0.01 86 1018.4
20260504192537 62 266 7.0 14.8 0.00 0.01 0.01 86 1017.9
20260504192046 62 275 7.0 15.6 0.00 0.01 0.01 86 1017.8
20260504191701 62 267 8.7 17.4 0.00 0.01 0.01 86 1018.1
20260504191031 63 265 12.2 17.4 0.00 0.01 0.01 85 1018.2
20260504190525 63 261 12.2 16.5 0.00 0.01 0.01 85 1018.3
20260504190215 63 270 11.3 15.6 0.00 0.01 0.01 85 1018.2
20260504185549 63 269 8.7 12.2 0.00 0.01 0.01 85 1018.2
20260504185034 63 268 5.2 11.3 0.00 0.01 0.01 85 1017.9
20260504184715 63 265 7.0 12.2 0.00 0.01 0.01 85 1017.9
20260504184045 63 261 7.8 12.2 0.00 0.01 0.01 84 1018.1
20260504183520 64 262 7.0 12.2 0.00 0.01 0.01 84 1018.0
20260504183118 64 261 8.7 14.8 0.00 0.01 0.01 84 1018.2
20260504182538 64 269 8.7 14.8 0.00 0.01 0.01 83 1018.3
20260504182038 65 269 9.6 15.6 0.00 0.01 0.01 83 1018.1
20260504181711 65 282 8.7 15.6 0.00 0.01 0.01 82 1018.0
20260504181048 65 273 8.7 16.5 0.00 0.01 0.01 83 1018.0
20260504180535 65 259 11.3 17.4 0.00 0.01 0.01 83 1018.3
20260504180209 65 263 11.3 17.4 0.00 0.01 0.01 82 1018.2
20260504175528 66 259 12.2 17.4 0.00 0.01 0.01 81 1018.2
20260504175044 66 259 8.7 13.9 0.00 0.01 0.01 82 1018.1
20260504174704 65 262 7.0 15.6 0.00 0.01 0.01 82 1018.2
20260504174047 65 261 8.7 15.6 0.00 0.01 0.01 81 1018.1
20260504173523 65 261 7.8 17.4 0.00 0.01 0.01 82 1018.2
20260504173123 65 259 8.7 17.4 0.00 0.01 0.01 83 1018.2
20260504172530 64 262 9.6 16.5 0.00 0.01 0.01 83 1018.3
20260504172020 64 271 11.3 16.5 0.00 0.01 0.01 82 1018.5
20260504171650 64 263 10.4 15.6 0.00 0.01 0.01 83 1018.5
20260504171034 64 265 8.7 16.5 0.00 0.01 0.01 83 1018.5
20260504170537 64 268 11.3 16.5 0.00 0.01 0.01 83 1018.6
20260504170134 64 286 9.6 13.9 0.00 0.01 0.01 83 1018.6
20260504160208 64 273 9.6 16.5 0.00 0.02 0.01 82 1019.3
20260504151036 65 262 10.4 15.6 0.00 0.02 0.01 81 1019.9
20260504150544 65 284 7.8 18.2 0.00 0.02 0.01 80 1019.7
20260504150201 66 263 13.9 18.2 0.00 0.02 0.01 78 1019.9
20260504141044 65 265 9.6 15.6 0.00 0.02 0.01 80 1019.9
20260504140538 65 268 11.3 15.6 0.00 0.02 0.01 80 1019.8
20260504140223 64 261 9.6 13.9 0.00 0.02 0.01 81 1020.0
20260504130543 60 265 3.5 7.8 0.00 0.02 0.01 85 1020.0
20260504130145 60 286 3.5 10.4 0.00 0.02 0.01 87 1020.0
20260504120151 53 279 6.1 9.6 0.00 0.02 0.01 90 1019.9
20260504110545 50 265 0.9 4.3 0.00 0.02 0.01 91 1019.7
20260504110150 49 250 1.7 4.3 0.00 0.02 0.01 92 1019.6
20260504100521 46 137 0.0 0.0 0.00 0.02 0.01 92 1018.9
20260504100207 47 137 0.0 0.0 0.00 0.02 0.01 92 1019.1